Regional Weather Roundup
Issued by NWS

Home | Current Version | Previous Version | Graphics & Text | Print | Product List | Glossary On
Versions: 1 2 3 4 5 6 7 8 9 10 11 12 13 14 15 16 17 18 19 20 21 22 23 24 25 26 27 28 29 30 31 32 33 34 35 36 37 38 39 40 41 42 43 44 45 46 47 48 49 50
000
ASUS43 KBIS 221310
RWRND

NORTH DAKOTA REGIONAL WEATHER ROUNDUP
NATIONAL WEATHER SERVICE BISMARCK ND
800 AM CDT SAT APR 22 2017

NOTE: "FAIR" INDICATES FEW OR NO CLOUDS BELOW 12,000 FEET WITH NO
SIGNIFICANT WEATHER AND/OR OBSTRUCTIONS TO VISIBILITY.


NDZ001>003-009>011-017-221400-
NORTHWEST NORTH DAKOTA

CITY           SKY/WX    TMP DP  RH WIND       PRES   REMARKS
WILLISTON      CLOUDY    44  42  93 N15       30.19R FOG
MINOT          FAIR      48  38  68 W9        30.17R
MINOT AFB      FOG       43  39  87 N13       30.17R VSB 1/2
$$

NDZ018>021-031>035-040>046-221400-
SOUTHWEST NORTH DAKOTA

CITY           SKY/WX    TMP DP  RH WIND       PRES   REMARKS
BISMARCK       FAIR      38  36  92 CALM      30.23S
DICKINSON      FAIR      36  34  92 S6        30.18S
GARRISON         N/A     39  36  89 S6        30.17F
HETTINGER ARPT MOSUNNY   40  34  79 CALM      30.23R
$$

NDZ004>008-012>016-024-026-027-054-221400-
NORTHEAST NORTH DAKOTA

CITY           SKY/WX    TMP DP  RH WIND       PRES   REMARKS
GRAND FORKS    PTSUNNY   48  42  80 W3        30.18S
GRND FRKS AFB  SUNNY     48  40  73 N5        30.18R
DEVILS LAKE    FAIR      47  39  74 SW10      30.17R
$$

NDZ022-023-025-028>030-036>039-047>053-221400-
SOUTHEAST NORTH DAKOTA

CITY           SKY/WX    TMP DP  RH WIND       PRES   REMARKS
FARGO          CLOUDY    45  40  82 SW8       30.22S
JAMESTOWN      FAIR      46  38  73 SW8       30.21S
$$





USA.gov is the U.S. government's official web portal to all federal, state and local government web resources and services.